Location: Unspecified
(0.0000°N, 0.0000°E)
Time: 13:37:50
(UTC+00:00)

Tiangong - Pass Details

Date: 27 November 2021
Orbit: 379 x 385 km, 41.5° (Epoch: 08 December)

Event Time Altitude Azimuth Distance (km) Brightness Sun altitude
Rises 18:41:15 0° 192° (SSW) 2,255 5.5 -12.4°
Reaches altitude 10° 18:44:52 10° 149° (SSE) 1,398 3.8 -13.3°
Maximum altitude 18:45:30 10° 138° (SE) 1,371 3.6 -13.4°
Enters shadow 18:46:06 10° 127° (SE) 1,392 3.6 -13.6°
